Flag Weather past 2 weeks in 's-Hertogenbosch, Netherlands

Now
59 °F

Fog.


Feels Like: 59 °F
Forecast: 50 / 63 °F
Wind: 5 mph from South

Location: Volkel

Current Time: Oct 30, 2014 at 8:05:30 PM

Latest Report: Oct 30, 2014 at 7:25 PM


Visibility: 4 mi

Pressure: 30.18 "Hg

Humidity: 88%

Dew point: 55 °F

Location of 's-HertogenboschLocation

Historic Weather in 's-Hertogenbosch — Graph

°F

's-Hertogenbosch temperature yesterday

Maximum temperature yesterday: 54 °F (at 11:55 PM)
Minimum temperature yesterday: 48 °F (at 12:25 AM)
Average temperature yesterday: 50 °F

Past Weeks' High & Low Weather Summary

 TemperatureHumidityPressure
High73 °F (Oct 18, 2:55 PM)100% (Oct 15, 7:25 PM)30.24 "Hg (Oct 15, 7:25 PM)
Low41 °F (Oct 23, 12:55 AM)64% (Oct 27, 12:55 PM)29.45 "Hg (Oct 21, 2:59 PM)
Average55 °F89%30.01 "Hg
* Reported Oct 15 7:25 PM — Oct 30 6:55 PM, 's-Hertogenbosch, Weather by CustomWeather, © 2014

Note: Actual official high and low records may vary slightly from our data, if they occured in-between our weather recording intervals... More about our weather records

Advertising

's-Hertogenbosch weather history for previous 24 hours

 ConditionsComfort  
Time TempWeatherWind HumidityBarometerVisibility
6:55 PM
Oct 30
59 °FFog.6 mph88%30.18 "Hg4 mi
6:25 PM59 °FFog.3 mph88%30.18 "Hg3 mi
5:55 PM59 °FFog.3 mph88%30.18 "Hg3 mi
5:25 PM59 °FFog.5 mph94%30.15 "Hg3 mi
4:55 PM59 °FFog.5 mph94%30.15 "Hg3 mi
4:25 PM61 °FFog.6 mph88%30.15 "Hg3 mi
3:55 PM61 °FFog.5 mph88%30.15 "Hg3 mi
3:25 PM61 °FFog.6 mph88%30.15 "Hg3 mi
3:00 PM61 °FFog.7 mph88%30.15 "Hg2 mi
2:55 PM61 °FFog.7 mph88%30.18 "Hg2 mi
2:25 PM59 °FFog.7 mph94%30.18 "Hg2 mi
2:03 PM59 °FFog.6 mph94%30.18 "Hg2 mi
1:25 PM59 °FFog.7 mph94%30.18 "Hg2 mi
12:55 PM57 °FFog.6 mph94%30.18 "Hg2 mi
12:25 PM57 °FFog.6 mph94%30.18 "Hg1 mi
11:55 AM55 °FFog.6 mph100%30.18 "Hg1 mi
11:25 AM55 °FFog.6 mph100%30.18 "Hg1 mi
11:03 AM55 °FFog.6 mph100%30.18 "Hg1 mi
10:55 AM55 °FFog.6 mph94%30.18 "Hg1 mi
10:25 AM55 °FFog.6 mph94%30.18 "Hg1 mi
9:55 AM54 °FFog.6 mph100%30.18 "Hg1 mi
9:25 AM54 °FFog.5 mph100%30.18 "Hg1 mi
9:02 AM54 °FFog.3 mph100%30.18 "Hg1 mi
8:55 AM54 °FFog.3 mph94%30.18 "Hg1 mi
8:25 AM54 °FFog.5 mph94%30.18 "Hg1 mi
7:55 AM52 °FFog.5 mph100%30.15 "Hg2 mi
7:25 AM52 °FFog.5 mph100%30.15 "Hg2 mi
7:03 AM52 °FFog.5 mph100%30.15 "Hg2 mi
6:59 AM52 °FFog.3 mph100%30.15 "Hg2 mi
6:25 AM52 °FFog.5 mph100%30.15 "Hg1 mi
5:55 AM52 °FFog.5 mph100%30.15 "Hg1 mi
5:25 AM52 °FFog.5 mph100%30.15 "Hg1 mi
4:25 AM52 °FFog.2 mph100%30.15 "Hg1 mi
4:04 AM52 °FFog.3 mph100%30.15 "Hg1 mi
3:55 AM52 °FFog.3 mph100%30.15 "Hg1 mi
3:25 AM52 °FFog.2 mph100%30.12 "Hg1 mi
3:03 AM52 °FFog.3 mph100%30.15 "Hg1 mi
2:55 AM52 °FFog.3 mph100%30.15 "Hg1 mi
2:25 AM52 °FLight rain. Partly cloudy.2 mph100%30.15 "Hg1 mi
1:55 AM52 °FLight rain. Low clouds.2 mph100%30.12 "Hg1 mi
1:25 AM52 °FSprinkles. Low clouds.1 mph100%30.12 "Hg0 mi
12:55 AM54 °FFog.1 mph94%30.12 "Hg0 mi
12:25 AM54 °FFog.1 mph94%30.12 "Hg1 mi
11:55 PM
Oct 29
54 °FFog.2 mph94%30.12 "Hg1 mi
11:25 PM52 °FFog.2 mph100%30.12 "Hg1 mi
10:55 PM52 °FFog.3 mph100%30.12 "Hg1 mi
10:25 PM52 °FFog.5 mph100%30.12 "Hg1 mi
9:55 PM52 °FFog.5 mph100%30.12 "Hg1 mi
9:25 PM52 °FFog.3 mph100%30.09 "Hg1 mi
8:55 PM52 °FFog.5 mph100%30.09 "Hg1 mi
8:25 PM52 °FFog.3 mph100%30.09 "Hg0 mi
Weather by CustomWeather, © 2014

See weather overviewHow to use our weather pages